Location: Dvur Kralove nad Labem
(50.4330°N, 15.8170°E)
Time: 15:01:59
(UTC+02:00)

ISS - Pass Details

Date: 24 May 2018
Orbit: 402 x 407 km, 51.6° (Epoch: 24 May)

Event Time Altitude Azimuth Distance (km) Brightness Sun altitude
Rises 01:20:42 0° 284° (WNW) 2,320 0.1 -18.6°
Reaches altitude 10° 01:22:47 10° 284° (WNW) 1,459 -0.9 -18.6°
Maximum altitude 01:26:03 85° 197° (SSW) 409 -4.0 -18.5°
Enters shadow 01:27:54 24° 108° (ESE) 890 -2.2 -18.4°
